Location: Narrabri
(30.3170°S, 149.7830°E)
Time: 06:00:06
(UTC+10:00)

ISS - Visible Passes

Search period start: 22 August 2019 00:00
Search period end: 01 September 2019 00:00
Orbit: 410 x 421 km, 51.6° (Epoch: 22 August)

Date Brightness Start Highest point End Pass type
(mag) Time Alt. Az. Time Alt. Az. Time Alt. Az.
22 Aug -1.1 19:08:29 10° WSW 19:10:43 16° SW 19:12:27 12° S visible
23 Aug -1.9 18:18:53 10° W 18:21:50 27° SW 18:24:48 10° SSE visible
25 Aug -0.8 18:20:18 10° SW 18:21:20 11° SSW 18:22:22 10° SSW visible
